Portada
METAR-TAF:

METAR-TAF

Aeroports :

Muskogee, Oklahoma, Estats Units d'Amèrica

latitud: 35-39-25N, longitud: 095-21-35W, altitud: 185 m

Observació

L'informe es va fer fa 52 minuts, a les 02:53 UTC
Vent 11 kt del Sud-Est
Temperatura 11°C
Humitat 62%
Pressió 1020 hPa
Visibilitat: 16.1 km
Cel cobert a una alçada de 3400 ft

METAR: KMKO 240253Z AUTO 14011KT 10SM OVC034 11/04 A3013 RMK AO2 SLP202 T01060044 55003

Hora: 21:45 (03:45 UTC)


TAF: manca

Observacions i pronòstics meteorològics de més de 4000 aeroports (METAR i TAF).

Les estacions disponibles són els punts grocs i vermells al mapa.

Posi el ratolí al punt desitjat per veure el nom de l'estació.

Feu clic per veure les observacions i els pronòstics meteorològics.

Per canviar el mapa: feu clic els botons verds amb una creu de color negre per apropar; al botó verd amb un guió per allunyar la imatge; o en les fletxes verdes per a mapes adjacents.


METAR-TAF: